K6OUA-11 Weather Reports


time (UTC)temp
C
wind
direction
speed
KPH
gust
KPH
rain 1hr
cm
rain 24hr
cm
rain mn
cm
humidity
%
barometer
mb
20260506194813 21 279 14.5 17.7 0.00 0.00 0.00 50
20260506194611 21 275 11.3 17.7 0.00 0.00 0.00 49
20260506194410 21 271 12.9 17.7 0.00 0.00 0.00 48
20260506194206 21 296 8.0 20.9 0.00 0.00 0.00 49
20260506194005 21 281 6.4 20.9 0.00 0.00 0.00 48
20260506193803 21 260 9.7 17.7 0.00 0.00 0.00 48
20260506193600 21 286 19.3 17.7 0.00 0.00 0.00 48
20260506193357 21 251 11.3 17.7 0.00 0.00 0.00 48
20260506193157 21 272 4.8 17.7 0.00 0.00 0.00 49
20260506192958 21 284 11.3 17.7 0.00 0.00 0.00 48
20260506192753 21 275 12.9 19.3 0.00 0.00 0.00 48
20260506192551 21 279 12.9 19.3 0.00 0.00 0.00 48
20260506192349 21 275 6.4 19.3 0.00 0.00 0.00 48
20260506192147 21 296 9.7 20.9 0.00 0.00 0.00 49
20260506191945 21 271 9.7 20.9 0.00 0.00 0.00 48
20260506191743 21 272 9.7 11.3 0.00 0.00 0.00 48
20260506191541 21 257 3.2 11.3 0.00 0.00 0.00 46
20260506191340 21 268 4.8 11.3 0.00 0.00 0.00 48
20260506191137 21 264 4.8 17.7 0.00 0.00 0.00 49
20260506190935 21 267 1.6 17.7 0.00 0.00 0.00 49
20260506190733 21 258 8.0 19.3 0.00 0.00 0.00 49
20260506190531 21 278 11.3 19.3 0.00 0.00 0.00 49
20260506190329 21 255 8.0 19.3 0.00 0.00 0.00 50
20260506190128 21 267 16.1 16.1 0.00 0.00 0.00 50
20260506185926 20 258 6.4 16.1 0.00 0.00 0.00 50
20260506185522 21 254 14.5 20.9 0.00 0.00 0.00 50
20260506185118 21 255 8.0 17.7 0.00 0.00 0.00 51
20260506184916 20 241 6.4 17.7 0.00 0.00 0.00 51
20260506184714 21 274 14.5 20.9 0.00 0.00 0.00 51
20260506184512 20 195 6.4 20.9 0.00 0.00 0.00 53
20260506184108 20 285 8.0 19.3 0.00 0.00 0.00 51
20260506183704 20 278 6.4 14.5 0.00 0.00 0.00 53
20260506183503 20 282 11.3 14.5 0.00 0.00 0.00 50
20260506183300 20 302 3.2 24.1 0.00 0.00 0.00 52
20260506182655 20 284 11.3 20.9 0.00 0.00 0.00 52
20260506182452 20 267 17.7 20.9 0.00 0.00 0.00 53
20260506182048 20 244 11.3 17.7 0.00 0.00 0.00 54
20260506181847 20 281 9.7 17.7 0.00 0.00 0.00 53
20260506181645 20 265 9.7 19.3 0.00 0.00 0.00 54
20260506181443 19 284 9.7 19.3 0.00 0.00 0.00 52
20260506181241 20 258 14.5 17.7 0.00 0.00 0.00 52
20260506181040 20 247 12.9 17.7 0.00 0.00 0.00 53
20260506180837 20 277 4.8 17.7 0.00 0.00 0.00 53
20260506180636 20 274 12.9 17.7 0.00 0.00 0.00 52
20260506180434 20 272 8.0 17.7 0.00 0.00 0.00 51
20260506180232 20 257 16.1 11.3 0.00 0.00 0.00 52
20260506180030 20 255 1.6 11.3 0.00 0.00 0.00 55
20260506175828 19 248 1.6 11.3 0.00 0.00 0.00 55
20260506175424 19 296 4.8 16.1 0.00 0.00 0.00 54
20260506175222 18 293 8.0 17.7 0.00 0.00 0.00 54
20260506175020 20 282 12.9 17.7 0.00 0.00 0.00 53
20260506174819 19 222 0.0 16.1 0.00 0.00 0.00 54
20260506174415 19 275 4.8 16.1 0.00 0.00 0.00 56
20260506174213 19 281 12.9 16.1 0.00 0.00 0.00 56
20260506174011 18 237 1.6 16.1 0.00 0.00 0.00 55
20260506173809 19 277 8.0 14.5 0.00 0.00 0.00 55
20260506173607 18 272 9.7 14.5 0.00 0.00 0.00 55
20260506173405 18 271 12.9 14.5 0.00 0.00 0.00 56
20260506173203 18 272 4.8 14.5 0.00 0.00 0.00 56
20260506173002 18 285 4.8 14.5 0.00 0.00 0.00 55
20260506172800 18 285 11.3 17.7 0.00 0.00 0.00 55
20260506172557 18 305 6.4 17.7 0.00 0.00 0.00 56
20260506172356 18 282 6.4 17.7 0.00 0.00 0.00 56
20260506171954 18 277 12.9 19.3 0.00 0.00 0.00 56
20260506171750 18 302 6.4 12.9 0.00 0.00 0.00 57
20260506171548 18 293 9.7 12.9 0.00 0.00 0.00 57
20260506171346 18 300 3.2 12.9 0.00 0.00 0.00 57
20260506171144 18 271 3.2 19.3 0.00 0.00 0.00 57
20260506170943 18 289 6.4 19.3 0.00 0.00 0.00 57
20260506170741 18 292 12.9 14.5 0.00 0.00 0.00 58
20260506170539 18 262 8.0 14.5 0.00 0.00 0.00 58
20260506170336 18 282 12.9 14.5 0.00 0.00 0.00 59
20260506170135 18 253 6.4 17.7 0.00 0.00 0.00 60
20260506165933 18 215 0.0 17.7 0.00 0.00 0.00 61
20260506165731 17 288 8.0 16.1 0.00 0.00 0.00 60
20260506165529 18 261 16.1 16.1 0.00 0.00 0.00 59
20260506165327 18 270 14.5 16.1 0.00 0.00 0.00 59
20260506165125 18 272 12.9 16.1 0.00 0.00 0.00 60
20260506164924 17 282 6.4 16.1 0.00 0.00 0.00 60
20260506164721 17 282 8.0 16.1 0.00 0.00 0.00 61
20260506164520 17 264 8.0 16.1 0.00 0.00 0.00 62
20260506164318 17 274 11.3 16.1 0.00 0.00 0.00 62
20260506164116 17 288 6.4 16.1 0.00 0.00 0.00 62
20260506163914 17 275 12.9 16.1 0.00 0.00 0.00 61
20260506163712 17 275 8.0 14.5 0.00 0.00 0.00 61
20260506163510 17 296 8.0 14.5 0.00 0.00 0.00 60
20260506163106 17 268 9.7 14.5 0.00 0.00 0.00 61
20260506162702 17 288 8.0 14.5 0.00 0.00 0.00 61
20260506162259 17 302 8.0 9.7 0.00 0.00 0.00 62
20260506162057 17 210 0.0 9.7 0.00 0.00 0.00 62
20260506161855 17 264 3.2 9.7 0.00 0.00 0.00 63
20260506161450 17 274 6.4 9.7 0.00 0.00 0.00 61
20260506161249 17 257 6.4 3.2 0.00 0.00 0.00 60
20260506160845 17 234 0.0 3.2 0.00 0.00 0.00 60
20260506160442 17 184 0.0 4.8 0.00 0.00 0.00 60
20260506160240 17 292 3.2 3.2 0.00 0.00 0.00 59
20260506160038 17 254 0.0 3.2 0.00 0.00 0.00 58
20260506155836 17 116 0.0 3.2 0.00 0.00 0.00 62
20260506155432 17 217 1.6 3.2 0.00 0.00 0.00 59
20260506155230 17 196 0.0 4.8 0.00 0.00 0.00 60
20260506154826 17 164 3.2 4.8 0.00 0.00 0.00 61
20260506154624 17 143 3.2 6.4 0.00 0.00 0.00 65
20260506154422 17 118 3.2 6.4 0.00 0.00 0.00 63
20260506154019 16 71 1.6 6.4 0.00 0.00 0.00 65
20260506153413 16 136 0.0 4.8 0.00 0.00 0.00 68
20260506153211 15 80 0.0 4.8 0.00 0.00 0.00 69
20260506153009 15 229 1.6 4.8 0.00 0.00 0.00 68
20260506152807 15 222 1.6 0.0 0.00 0.00 0.00 71
20260506152605 15 198 0.0 0.0 0.00 0.00 0.00 71
20260506152403 15 84 0.0 0.0 0.00 0.00 0.00 72
20260506152201 15 84 0.0 0.0 0.00 0.00 0.00 72
20260506152000 15 84 0.0 0.0 0.00 0.00 0.00 74
20260506151556 15 84 0.0 0.0 0.00 0.00 0.00 73
20260506151354 15 84 0.0 0.0 0.00 0.00 0.00 73
20260506151152 15 84 0.0 0.0 0.00 0.00 0.00 73
20260506150949 15 84 0.0 0.0 0.00 0.00 0.00 73
20260506150748 15 84 0.0 1.6 0.00 0.00 0.00 72
20260506150546 15 84 0.0 1.6 0.00 0.00 0.00 73
20260506150344 15 84 0.0 1.6 0.00 0.00 0.00 73
20260506150143 14 142 1.6 3.2 0.00 0.00 0.00 74
20260506145941 14 59 0.0 3.2 0.00 0.00 0.00 75
20260506145335 13 112 1.6 4.8 0.00 0.00 0.00 76
20260506145133 13 109 0.0 4.8 0.00 0.00 0.00 76
20260506144929 13 112 3.2 4.8 0.00 0.00 0.00 77
20260506144729 13 137 1.6 3.2 0.00 0.00 0.00 76
20260506144527 13 78 0.0 3.2 0.00 0.00 0.00 78
20260506144324 13 105 1.6 3.2 0.00 0.00 0.00 78
20260506144123 13 82 0.0 1.6 0.00 0.00 0.00 78
20260506143921 13 84 0.0 1.6 0.00 0.00 0.00 79
20260506143720 12 101 0.0 3.2 0.00 0.00 0.00 80
20260506143518 12 101 0.0 3.2 0.00 0.00 0.00 80
20260506143316 12 101 0.0 4.8 0.00 0.00 0.00 81
20260506143114 12 109 0.0 4.8 0.00 0.00 0.00 80
20260506142912 12 90 1.6 4.8 0.00 0.00 0.00 81
20260506142710 12 126 3.2 4.8 0.00 0.00 0.00 81
20260506142306 12 82 1.6 4.8 0.00 0.00 0.00 82
20260506142104 12 63 0.0 4.8 0.00 0.00 0.00 82
20260506141902 12 54 0.0 4.8 0.00 0.00 0.00 82
20260506141700 12 95 3.2 6.4 0.00 0.00 0.00 83
20260506141457 11 129 1.6 6.4 0.00 0.00 0.00 84
20260506141257 11 113 1.6 4.8 0.00 0.00 0.00 84
20260506141054 11 91 4.8 4.8 0.00 0.00 0.00 85
20260506140853 11 102 3.2 4.8 0.00 0.00 0.00 85
20260506140449 11 63 0.0 3.2 0.00 0.00 0.00 86
20260506140248 11 74 0.0 6.4 0.00 0.00 0.00 87
20260506140045 11 97 3.2 6.4 0.00 0.00 0.00 87
20260506135843 11 80 1.6 6.4 0.00 0.00 0.00 88
20260506135641 10 73 1.6 4.8 0.00 0.00 0.00 88
20260506135439 10 94 3.2 4.8 0.00 0.00 0.00 88
20260506134632 10 116 6.4 6.4 0.00 0.00 0.00 89
20260506134428 10 106 3.2 6.4 0.00 0.00 0.00 89
20260506134228 10 111 4.8 6.4 0.00 0.00 0.00 89
20260506133824 10 104 4.8 6.4 0.00 0.00 0.00 90
20260506133421 10 75 0.0 3.2 0.00 0.00 0.00 90
20260506133219 10 77 3.2 4.8 0.00 0.00 0.00 90
20260506133017 10 82 1.6 4.8 0.00 0.00 0.00 90
20260506132613 9 81 1.6 6.4 0.00 0.00 0.00 91
20260506132411 9 94 1.6 6.4 0.00 0.00 0.00 91
20260506132209 9 105 3.2 0.0 0.00 0.00 0.00 91
20260506132007 9 59 0.0 0.0 0.00 0.00 0.00 91
20260506131805 9 59 0.0 0.0 0.00 0.00 0.00 91
20260506131603 9 59 0.0 0.0 0.00 0.00 0.00 91
20260506131401 9 59 0.0 0.0 0.00 0.00 0.00 91
20260506131159 9 59 0.0 0.0 0.00 0.00 0.00 90
20260506130957 9 59 0.0 0.0 0.00 0.00 0.00 90
20260506130756 9 59 0.0 0.0 0.00 0.00 0.00 90
20260506130150 9 59 0.0 0.0 0.00 0.00 0.00 91
20260506125948 9 59 0.0 0.0 0.00 0.00 0.00 90
20260506125746 9 59 0.0 0.0 0.00 0.00 0.00 91
20260506125542 9 59 0.0 0.0 0.00 0.00 0.00 91
20260506125341 9 59 0.0 0.0 0.00 0.00 0.00 91
20260506125141 9 59 0.0 0.0 0.00 0.00 0.00 91
20260506124736 9 59 0.0 3.2 0.00 0.00 0.00 91
20260506124535 9 59 0.0 3.2 0.00 0.00 0.00 91
20260506124333 9 59 0.0 3.2 0.00 0.00 0.00 91
20260506124131 9 88 1.6 3.2 0.00 0.00 0.00 91
20260506123929 9 63 0.0 3.2 0.00 0.00 0.00 91
20260506123727 9 104 3.2 3.2 0.00 0.00 0.00 91
20260506123525 9 77 0.0 3.2 0.00 0.00 0.00 91
20260506123323 9 77 0.0 3.2 0.00 0.00 0.00 91
20260506123121 9 77 0.0 3.2 0.00 0.00 0.00 91
20260506122920 9 77 0.0 3.2 0.00 0.00 0.00 91
20260506122717 9 77 0.0 0.0 0.00 0.00 0.00 91
20260506122516 9 71 0.0 0.0 0.00 0.00 0.00 91
20260506122314 9 71 0.0 0.0 0.00 0.00 0.00 91
20260506122112 9 71 0.0 0.0 0.00 0.00 0.00 91
20260506121910 9 71 0.0 0.0 0.00 0.00 0.00 91
20260506121708 9 71 0.0 0.0 0.00 0.00 0.00 91
20260506121506 9 71 0.0 0.0 0.00 0.00 0.00 91
20260506121304 9 71 0.0 0.0 0.00 0.00 0.00 91
20260506121102 9 71 0.0 0.0 0.00 0.00 0.00 91
20260506120900 9 71 0.0 0.0 0.00 0.00 0.00 91
20260506120657 9 71 0.0 0.0 0.00 0.00 0.00 91
20260506120457 9 71 0.0 0.0 0.00 0.00 0.00 91
20260506120255 9 71 0.0 0.0 0.00 0.00 0.00 91
20260506120053 9 71 0.0 0.0 0.00 0.00 0.00 91
20260506115851 9 71 0.0 0.0 0.00 0.00 0.00 91
20260506115647 9 71 0.0 0.0 0.00 0.00 0.00 91
20260506115447 9 71 0.0 0.0 0.00 0.00 0.00 91
20260506115245 9 71 0.0 0.0 0.00 0.00 0.00 91
20260506115043 10 71 0.0 0.0 0.00 0.00 0.00 91
20260506114841 9 71 0.0 0.0 0.00 0.00 0.00 91
20260506114437 9 71 0.0 0.0 0.00 0.00 0.00 91
20260506114034 10 71 0.0 0.0 0.00 0.00 0.00 90
20260506113628 10 71 0.0 0.0 0.00 0.00 0.00 90
20260506113427 10 71 0.0 0.0 0.00 0.00 0.00 90
20260506113226 10 71 0.0 0.0 0.00 0.00 0.00 90
20260506113024 10 71 0.0 0.0 0.00 0.00 0.00 90
20260506112822 10 71 0.0 0.0 0.00 0.00 0.00 91
20260506112620 10 71 0.0 0.0 0.00 0.00 0.00 90
20260506111813 10 71 0.0 3.2 0.00 0.00 0.00 91
20260506111611 10 71 0.0 3.2 0.00 0.00 0.00 91
20260506111207 10 71 0.0 4.8 0.00 0.00 0.00 91
20260506111005 10 99 1.6 4.8 0.00 0.00 0.00 91
20260506110803 10 109 4.8 4.8 0.00 0.00 0.00 91
20260506110602 10 106 1.6 4.8 0.00 0.00 0.00 91
20260506110158 10 102 3.2 0.0 0.00 0.00 0.00 92
20260506105956 10 91 1.6 0.0 0.00 0.00 0.00 92
20260506105350 10 82 0.0 0.0 0.00 0.00 0.00 92
20260506105148 10 82 0.0 3.2 0.00 0.00 0.00 92
20260506104742 10 95 1.6 4.8 0.00 0.00 0.00 92
20260506104542 10 98 1.6 4.8 0.00 0.00 0.00 92
20260506104340 10 98 1.6 4.8 0.00 0.00 0.00 92
20260506104138 10 109 3.2 0.0 0.00 0.00 0.00 92
20260506103937 10 70 0.0 0.0 0.00 0.00 0.00 92
20260506103531 10 70 0.0 0.0 0.00 0.00 0.00 92
20260506103331 10 70 0.0 0.0 0.00 0.00 0.00 92
20260506103129 10 70 0.0 0.0 0.00 0.00 0.00 92
20260506102927 10 70 0.0 0.0 0.00 0.00 0.00 92
20260506102523 10 70 0.0 0.0 0.00 0.00 0.00 92
20260506102321 10 70 0.0 3.2 0.00 0.00 0.00 92
20260506102120 10 70 0.0 3.2 0.00 0.00 0.00 92
20260506101918 10 70 0.0 3.2 0.00 0.00 0.00 92
20260506101715 9 70 0.0 4.8 0.00 0.00 0.00 92
20260506101514 9 77 0.0 4.8 0.00 0.00 0.00 92
20260506101312 9 105 3.2 0.0 0.00 0.00 0.00 92
20260506101110 9 98 1.6 0.0 0.00 0.00 0.00 92
20260506100908 10 75 0.0 0.0 0.00 0.00 0.00 92
20260506100706 9 75 0.0 0.0 0.00 0.00 0.00 92
20260506100502 9 75 0.0 0.0 0.00 0.00 0.00 92
20260506100302 9 75 0.0 0.0 0.00 0.00 0.00 91
20260506095859 10 75 0.0 0.0 0.00 0.00 0.00 90
20260506095656 10 75 0.0 0.0 0.00 0.00 0.00 90
20260506095455 10 75 0.0 0.0 0.00 0.00 0.00 90
20260506095253 10 75 0.0 0.0 0.00 0.00 0.00 90
20260506095051 10 75 0.0 0.0 0.00 0.00 0.00 90
20260506094849 10 75 0.0 0.0 0.00 0.00 0.00 90
20260506094647 10 75 0.0 0.0 0.00 0.00 0.00 90
20260506094445 10 75 0.0 0.0 0.00 0.00 0.00 90
20260506094243 10 75 0.0 0.0 0.00 0.00 0.00 90
20260506094041 10 75 0.0 0.0 0.00 0.00 0.00 90
20260506093840 10 75 0.0 0.0 0.00 0.00 0.00 90
20260506093638 10 75 0.0 0.0 0.00 0.00 0.00 90
20260506093436 10 75 0.0 0.0 0.00 0.00 0.00 90
20260506093232 10 75 0.0 0.0 0.00 0.00 0.00 90
20260506093032 10 75 0.0 0.0 0.00 0.00 0.00 90
20260506092626 10 75 0.0 0.0 0.00 0.00 0.00 90
20260506092224 10 75 0.0 0.0 0.00 0.00 0.00 90
20260506092022 10 75 0.0 0.0 0.00 0.00 0.00 90
20260506091819 10 75 0.0 0.0 0.00 0.00 0.00 90
20260506091617 10 75 0.0 0.0 0.00 0.00 0.00 90
20260506091416 10 75 0.0 0.0 0.00 0.00 0.00 90
20260506091215 10 75 0.0 0.0 0.00 0.00 0.00 90
20260506091013 10 75 0.0 0.0 0.00 0.00 0.00 90
20260506090811 10 75 0.0 0.0 0.00 0.00 0.00 90
20260506090609 10 75 0.0 0.0 0.00 0.00 0.00 90
20260506090407 10 75 0.0 0.0 0.00 0.00 0.00 90
20260506090205 10 75 0.0 3.2 0.00 0.00 0.00 90
20260506090003 10 75 0.0 3.2 0.00 0.00 0.00 90
20260506085801 10 75 0.0 3.2 0.00 0.00 0.00 90
20260506085559 10 75 0.0 3.2 0.00 0.00 0.00 90
20260506085358 10 84 1.6 3.2 0.00 0.00 0.00 90
20260506085156 10 75 0.0 0.0 0.00 0.00 0.00 90
20260506084751 11 66 0.0 0.0 0.00 0.00 0.00 90
20260506084550 11 66 0.0 0.0 0.00 0.00 0.00 90
20260506084146 11 66 0.0 0.0 0.00 0.00 0.00 90
20260506083944 11 66 0.0 0.0 0.00 0.00 0.00 90
20260506083742 11 66 0.0 0.0 0.00 0.00 0.00 90
20260506083540 10 66 0.0 0.0 0.00 0.00 0.00 90
20260506083137 11 66 0.0 0.0 0.00 0.00 0.00 90
20260506082934 11 66 0.0 0.0 0.00 0.00 0.00 90
20260506082733 11 66 0.0 0.0 0.00 0.00 0.00 90
20260506082531 11 66 0.0 0.0 0.00 0.00 0.00 90
20260506082330 11 66 0.0 0.0 0.00 0.00 0.00 90
20260506082127 11 66 0.0 0.0 0.00 0.00 0.00 90
20260506081723 11 66 0.0 0.0 0.00 0.00 0.00 90
20260506081521 11 66 0.0 0.0 0.00 0.00 0.00 89
20260506081319 11 66 0.0 0.0 0.00 0.00 0.00 90
20260506081118 11 66 0.0 0.0 0.00 0.00 0.00 90
20260506080916 11 66 0.0 0.0 0.00 0.00 0.00 90
20260506080654 11 66 0.0 0.0 0.00 0.00 0.00 90
20260506080512 11 66 0.0 0.0 0.00 0.00 0.00 90
20260506080310 11 66 0.0 4.8 0.00 0.00 0.00 90
20260506080108 11 66 0.0 4.8 0.00 0.00 0.00 90
20260506073443 11 56 0.0 0.0 0.00 0.00 0.00 91
20260506073241 11 56 0.0 0.0 0.00 0.00 0.00 91
20260506073039 11 56 0.0 0.0 0.00 0.00 0.00 91
20260506072838 11 56 0.0 0.0 0.00 0.00 0.00 91
20260506072635 11 56 0.0 0.0 0.00 0.00 0.00 91
20260506072230 11 56 0.0 0.0 0.00 0.00 0.00 91
20260506072030 11 56 0.0 0.0 0.00 0.00 0.00 90
20260506071828 11 56 0.0 0.0 0.00 0.00 0.00 91
20260506071626 11 56 0.0 0.0 0.00 0.00 0.00 91
20260506071424 11 56 0.0 0.0 0.00 0.00 0.00 90
20260506071222 11 56 0.0 1.6 0.00 0.00 0.00 90
20260506071020 11 56 0.0 1.6 0.00 0.00 0.00 90
20260506070820 11 56 0.0 3.2 0.00 0.00 0.00 90
20260506070617 11 61 1.6 3.2 0.00 0.00 0.00 90
20260506070415 11 63 0.0 3.2 0.00 0.00 0.00 90
20260506070213 11 82 1.6 0.0 0.00 0.00 0.00 90
20260506062336 11 8 0.0 0.0 0.00 0.00 0.00 89
20260506062135 11 8 0.0 0.0 0.00 0.00 0.00 89
20260506061933 11 8 0.0 0.0 0.00 0.00 0.00 89
20260506061731 11 8 0.0 0.0 0.00 0.00 0.00 89
20260506061529 11 8 0.0 0.0 0.00 0.00 0.00 89
20260506061327 11 8 0.0 0.0 0.00 0.00 0.00 89
20260506061125 11 8 0.0 0.0 0.00 0.00 0.00 89
20260506060923 11 8 0.0 0.0 0.00 0.00 0.00 89
20260506060721 11 8 0.0 0.0 0.00 0.00 0.00 89
20260506060519 11 8 0.0 0.0 0.00 0.00 0.00 88
20260506060115 11 8 0.0 0.0 0.00 0.00 0.00 88
20260506051231 12 288 0.0 0.0 0.00 0.00 0.00 85
20260506051029 12 288 0.0 0.0 0.00 0.00 0.00 84
20260506050826 12 288 0.0 0.0 0.00 0.00 0.00 85
20260506050624 12 288 0.0 3.2 0.00 0.00 0.00 85
20260506050422 12 288 0.0 3.2 0.00 0.00 0.00 85
20260506045009 12 289 0.0 1.6 0.00 0.00 0.00 82
20260506044807 12 289 0.0 3.2 0.00 0.00 0.00 82
20260506044605 12 289 0.0 3.2 0.00 0.00 0.00 82
20260506044201 13 289 1.6 4.8 0.00 0.00 0.00 83
20260506043957 13 282 1.6 4.8 0.00 0.00 0.00 82
20260506043758 13 292 1.6 3.2 0.00 0.00 0.00 82
20260506043354 13 293 1.6 3.2 0.00 0.00 0.00 82
20260506043151 13 275 0.0 3.2 0.00 0.00 0.00 82
20260506042950 13 289 0.0 3.2 0.00 0.00 0.00 82
20260506042746 13 288 1.6 3.2 0.00 0.00 0.00 82
20260506042546 13 286 1.6 3.2 0.00 0.00 0.00 81
20260506042344 13 281 1.6 3.2 0.00 0.00 0.00 81
20260506042142 13 279 1.6 0.0 0.00 0.00 0.00 81
20260506041738 13 265 0.0 0.0 0.00 0.00 0.00 81
20260506041536 13 265 0.0 0.0 0.00 0.00 0.00 81
20260506041335 13 265 0.0 0.0 0.00 0.00 0.00 80
20260506041133 13 265 0.0 0.0 0.00 0.00 0.00 80
20260506035921 13 265 0.0 0.0 0.00 0.00 0.00 79
20260506035720 13 265 0.0 0.0 0.00 0.00 0.00 79
20260506035518 13 265 0.0 0.0 0.00 0.00 0.00 79
20260506035315 13 265 0.0 0.0 0.00 0.00 0.00 79
20260506035114 13 265 0.0 0.0 0.00 0.00 0.00 79
20260506034912 14 265 0.0 0.0 0.00 0.00 0.00 78
20260506034710 14 265 0.0 0.0 0.00 0.00 0.00 78
20260506034508 14 265 0.0 0.0 0.00 0.00 0.00 77
20260506034306 14 265 0.0 0.0 0.00 0.00 0.00 77
20260506034104 14 265 0.0 0.0 0.00 0.00 0.00 77
20260506033902 14 265 0.0 0.0 0.00 0.00 0.00 77
20260506033700 14 265 0.0 0.0 0.00 0.00 0.00 76
20260506033457 14 265 0.0 0.0 0.00 0.00 0.00 76
20260506033256 15 265 0.0 0.0 0.00 0.00 0.00 76
20260506033053 15 265 0.0 0.0 0.00 0.00 0.00 76
20260506032852 15 265 0.0 0.0 0.00 0.00 0.00 76
20260506032651 15 265 0.0 0.0 0.00 0.00 0.00 76
20260506032449 15 265 0.0 0.0 0.00 0.00 0.00 76
20260506032247 15 265 0.0 0.0 0.00 0.00 0.00 76
20260506032045 15 265 0.0 0.0 0.00 0.00 0.00 76
20260506031843 15 265 0.0 0.0 0.00 0.00 0.00 76
20260506031641 15 265 0.0 1.6 0.00 0.00 0.00 76
20260506031439 15 265 0.0 1.6 0.00 0.00 0.00 76
20260506031036 15 275 1.6 1.6 0.00 0.00 0.00 76
20260506030833 15 279 0.0 1.6 0.00 0.00 0.00 76
20260506030631 15 270 0.0 1.6 0.00 0.00 0.00 76
20260506030228 15 275 1.6 3.2 0.00 0.00 0.00 76
20260506030026 15 272 1.6 3.2 0.00 0.00 0.00 75
20260506025824 15 254 0.0 3.2 0.00 0.00 0.00 75
20260506025622 15 261 1.6 1.6 0.00 0.00 0.00 75
20260506025420 15 267 0.0 1.6 0.00 0.00 0.00 75
20260506025218 15 217 0.0 0.0 0.00 0.00 0.00 75
20260506025016 15 217 0.0 0.0 0.00 0.00 0.00 74
20260506024815 15 217 0.0 0.0 0.00 0.00 0.00 74
20260506024613 15 217 0.0 0.0 0.00 0.00 0.00 74
20260506024410 15 217 0.0 0.0 0.00 0.00 0.00 73
20260506024207 15 217 0.0 1.6 0.00 0.00 0.00 73
20260506024007 15 217 0.0 1.6 0.00 0.00 0.00 73
20260506023805 15 217 0.0 3.2 0.00 0.00 0.00 73
20260506023603 15 180 0.0 3.2 0.00 0.00 0.00 73
20260506023200 16 180 0.0 3.2 0.00 0.00 0.00 72
20260506022957 16 264 0.0 3.2 0.00 0.00 0.00 72
20260506022755 16 264 0.0 8.0 0.00 0.00 0.00 73
20260506022553 16 268 0.0 8.0 0.00 0.00 0.00 72
20260506022352 16 275 0.0 8.0 0.00 0.00 0.00 73
20260506022150 16 279 1.6 4.8 0.00 0.00 0.00 73
20260506021948 16 270 6.4 4.8 0.00 0.00 0.00 72
20260506021746 16 278 3.2 4.8 0.00 0.00 0.00 72
20260506021544 16 279 3.2 4.8 0.00 0.00 0.00 72
20260506021342 16 274 0.0 4.8 0.00 0.00 0.00 71
20260506021140 16 274 1.6 6.4 0.00 0.00 0.00 72
20260506020938 16 293 3.2 6.4 0.00 0.00 0.00 72
20260506020736 16 284 6.4 8.0 0.00 0.00 0.00 72
20260506020535 16 279 1.6 8.0 0.00 0.00 0.00 72
20260506020333 16 258 0.0 8.0 0.00 0.00 0.00 71
20260506020131 16 288 4.8 9.7 0.00 0.00 0.00 72
20260506015929 16 293 4.8 9.7 0.00 0.00 0.00 71
20260506015727 16 288 4.8 8.0 0.00 0.00 0.00 71
20260506015525 16 284 4.8 8.0 0.00 0.00 0.00 72
20260506015323 16 271 4.8 8.0 0.00 0.00 0.00 72
20260506015121 16 241 0.0 8.0 0.00 0.00 0.00 72
20260506014919 16 219 0.0 8.0 0.00 0.00 0.00 72
20260506014716 16 258 3.2 9.7 0.00 0.00 0.00 72
20260506014314 16 293 4.8 12.9 0.00 0.00 0.00 71
20260506014112 16 300 1.6 12.9 0.00 0.00 0.00 71
20260506013910 16 296 1.6 12.9 0.00 0.00 0.00 70
20260506013506 16 199 0.0 11.3 0.00 0.00 0.00 70
20260506013302 17 191 0.0 8.0 0.00 0.00 0.00 70
20260506012900 17 267 0.0 8.0 0.00 0.00 0.00 69
20260506012658 17 278 1.6 11.3 0.00 0.00 0.00 69
20260506012456 17 229 0.0 11.3 0.00 0.00 0.00 69
20260506012254 17 299 1.6 11.3 0.00 0.00 0.00 69
20260506012052 17 267 0.0 11.3 0.00 0.00 0.00 69
20260506011850 17 230 4.8 11.3 0.00 0.00 0.00 69
20260506011447 17 267 9.7 12.9 0.00 0.00 0.00 68
20260506011245 17 262 8.0 12.9 0.00 0.00 0.00 68
20260506011043 17 270 3.2 12.9 0.00 0.00 0.00 68
20260506010841 17 213 0.0 12.9 0.00 0.00 0.00 68
20260506010639 17 240 6.4 12.9 0.00 0.00 0.00 68
20260506010437 17 241 1.6 12.9 0.00 0.00 0.00 69
20260506010235 17 278 3.2 11.3 0.00 0.00 0.00 69
20260506010033 17 268 8.0 11.3 0.00 0.00 0.00 69
20260506005831 17 288 8.0 11.3 0.00 0.00 0.00 69
20260506005629 17 260 6.4 16.1 0.00 0.00 0.00 68
20260506005427 17 300 4.8 16.1 0.00 0.00 0.00 69
20260506005226 17 270 9.7 20.9 0.00 0.00 0.00 68
20260506005024 17 285 9.7 20.9 0.00 0.00 0.00 67
20260506004822 17 254 16.1 17.7 0.00 0.00 0.00 66
20260506004416 17 265 1.6 17.7 0.00 0.00 0.00 65
20260506004215 17 274 3.2 19.3 0.00 0.00 0.00 65
20260506004014 17 255 14.5 19.3 0.00 0.00 0.00 63
20260506003811 17 239 12.9 16.1 0.00 0.00 0.00 63
20260506003611 18 278 3.2 16.1 0.00 0.00 0.00 63
20260506003207 17 247 6.4 20.9 0.00 0.00 0.00 65
20260506003003 17 278 12.9 20.9 0.00 0.00 0.00 65
20260506002803 17 258 17.7 24.1 0.00 0.00 0.00 63
20260506002601 18 258 9.7 24.1 0.00 0.00 0.00 62
20260506002357 18 277 12.9 24.1 0.00 0.00 0.00 61
20260506002157 18 271 14.5 17.7 0.00 0.00 0.00 61
20260506001954 18 227 4.8 17.7 0.00 0.00 0.00 61
20260506001753 18 277 6.4 17.7 0.00 0.00 0.00 61
20260506001551 18 254 1.6 17.7 0.00 0.00 0.00 62
20260506001350 18 275 4.8 17.7 0.00 0.00 0.00 62
20260506001148 18 271 8.0 16.1 0.00 0.00 0.00 63
20260506000946 18 296 3.2 16.1 0.00 0.00 0.00 63
20260506000744 17 267 8.0 19.3 0.00 0.00 0.00 63
20260506000542 17 281 1.6 19.3 0.00 0.00 0.00 62
20260506000340 17 260 11.3 19.3 0.00 0.00 0.00 62
20260506000139 17 237 3.2 14.5 0.00 0.00 0.00 61
20260505235936 18 277 3.2 14.5 0.00 0.00 0.00 61
20260505235531 18 264 9.7 12.9 0.00 0.00 0.00 60
20260505235331 18 156 0.0 12.9 0.00 0.00 0.00 60
20260505234927 18 258 11.3 19.3 0.00 0.00 0.00 59
20260505234725 18 277 4.8 17.7 0.00 0.00 0.00 58
20260505234523 18 271 14.5 17.7 0.00 0.00 0.00 58
20260505234117 18 257 11.3 17.7 0.00 0.00 0.00 58
20260505233916 18 270 1.6 17.7 0.00 0.00 0.00 58
20260505233715 18 258 14.5 17.7 0.00 0.00 0.00 58
20260505233513 18 277 9.7 17.7 0.00 0.00 0.00 58
20260505233310 18 264 9.7 19.3 0.00 0.00 0.00 58
20260505233110 18 258 11.3 19.3 0.00 0.00 0.00 58
20260505232305 18 258 9.7 24.1 0.00 0.00 0.00 56
20260505232101 18 260 9.7 24.1 0.00 0.00 0.00 55
20260505231858 18 288 3.2 24.1 0.00 0.00 0.00 55
20260505231657 19 268 12.9 14.5 0.00 0.00 0.00 55
20260505231455 18 281 3.2 14.5 0.00 0.00 0.00 56
20260505231251 18 257 9.7 12.9 0.00 0.00 0.00 57
20260505231051 18 268 12.9 12.9 0.00 0.00 0.00 58
20260505230849 18 163 3.2 12.9 0.00 0.00 0.00 57
20260505230646 18 251 0.0 20.9 0.00 0.00 0.00 56
20260505230445 18 296 0.0 20.9 0.00 0.00 0.00 56
20260505230243 18 182 0.0 25.7 0.00 0.00 0.00 57
20260505225839 18 244 12.9 25.7 0.00 0.00 0.00 56
20260505225436 19 278 1.6 16.1 0.00 0.00 0.00 54
20260505225234 19 254 14.5 17.7 0.00 0.00 0.00 55
20260505225032 18 277 6.4 17.7 0.00 0.00 0.00 55
20260505224830 18 196 1.6 17.7 0.00 0.00 0.00 56
20260505224628 18 244 8.0 29.0 0.00 0.00 0.00 56
20260505224426 18 324 6.4 29.0 0.00 0.00 0.00 56
20260505224224 18 262 12.9 20.9 0.00 0.00 0.00 55
20260505224022 18 220 9.7 20.9 0.00 0.00 0.00 54
20260505223818 19 281 11.3 22.5 0.00 0.00 0.00 54
20260505223617 19 196 11.3 22.5 0.00 0.00 0.00 52
20260505223416 20 279 4.8 22.5 0.00 0.00 0.00 54
20260505223215 19 281 12.9 24.1 0.00 0.00 0.00 53
20260505223011 20 264 8.0 24.1 0.00 0.00 0.00 53
20260505222811 19 255 8.0 24.1 0.00 0.00 0.00 53
20260505222609 20 250 9.7 24.1 0.00 0.00 0.00 53
20260505222407 20 261 12.9 24.1 0.00 0.00 0.00 55
20260505222205 19 271 4.8 22.5 0.00 0.00 0.00 55
20260505222001 19 257 16.1 22.5 0.00 0.00 0.00 53
20260505221801 20 277 22.5 22.5 0.00 0.00 0.00 53
20260505221600 20 160 4.8 22.5 0.00 0.00 0.00 54
20260505221358 20 274 8.0 22.5 0.00 0.00 0.00 54
20260505221154 19 258 3.2 22.5 0.00 0.00 0.00 55
20260505220953 19 237 9.7 22.5 0.00 0.00 0.00 54
20260505220752 19 270 14.5 22.5 0.00 0.00 0.00 53
20260505220550 20 264 4.8 22.5 0.00 0.00 0.00 54
20260505220146 19 203 4.8 25.7 0.00 0.00 0.00 54
20260505215944 19 270 16.1 25.7 0.00 0.00 0.00 53
20260505215742 19 268 11.3 27.4 0.00 0.00 0.00 54
20260505215540 19 253 17.7 27.4 0.00 0.00 0.00 55
20260505215339 18 254 11.3 27.4 0.00 0.00 0.00 55
20260505215136 19 277 8.0 22.5 0.00 0.00 0.00 54
20260505214935 19 250 14.5 22.5 0.00 0.00 0.00 53
20260505214733 20 258 19.3 17.7 0.00 0.00 0.00 50
20260505214329 20 142 3.2 17.7 0.00 0.00 0.00 49
20260505214127 20 247 12.9 22.5 0.00 0.00 0.00 49
20260505213925 21 92 0.0 22.5 0.00 0.00 0.00 48
20260505213723 21 215 16.1 19.3 0.00 0.00 0.00 48
20260505213521 21 244 3.2 19.3 0.00 0.00 0.00 45
20260505213317 21 247 8.0 29.0 0.00 0.00 0.00 47
20260505213117 20 258 11.3 29.0 0.00 0.00 0.00 48
20260505212915 20 244 4.8 29.0 0.00 0.00 0.00 47
20260505212714 20 279 8.0 22.5 0.00 0.00 0.00 48
20260505212511 20 237 11.3 22.5 0.00 0.00 0.00 49
20260505212309 20 274 17.7 16.1 0.00 0.00 0.00 47
20260505212107 20 233 0.0 16.1 0.00 0.00 0.00 48
20260505211704 20 275 3.2 20.9 0.00 0.00 0.00 51
20260505211502 19 296 4.8 20.9 0.00 0.00 0.00 50
20260505211300 19 331 3.2 19.3 0.00 0.00 0.00 53
20260505211058 18 267 14.5 19.3 0.00 0.00 0.00 54
20260505210856 18 299 6.4 19.3 0.00 0.00 0.00 53
20260505210654 18 268 11.3 19.3 0.00 0.00 0.00 54
20260505210452 18 232 12.9 19.3 0.00 0.00 0.00 54
20260505210250 18 253 9.7 17.7 0.00 0.00 0.00 55
20260505205846 18 258 8.0 17.7 0.00 0.00 0.00 54
20260505205643 18 275 9.7 14.5 0.00 0.00 0.00 55
20260505205443 18 225 1.6 14.5 0.00 0.00 0.00 54
20260505205241 18 279 4.8 17.7 0.00 0.00 0.00 56
20260505205039 18 281 4.8 17.7 0.00 0.00 0.00 56
20260505204837 18 288 11.3 17.7 0.00 0.00 0.00 56
20260505204634 18 257 11.3 29.0 0.00 0.00 0.00 56
20260505204431 18 147 0.0 29.0 0.00 0.00 0.00 57
20260505204029 18 264 16.1 20.9 0.00 0.00 0.00 57
20260505203827 18 254 12.9 20.9 0.00 0.00 0.00 57
20260505203423 18 258 14.5 17.7 0.00 0.00 0.00 56
20260505203222 18 264 9.7 16.1 0.00 0.00 0.00 56
20260505203020 18 243 0.0 16.1 0.00 0.00 0.00 56
20260505202816 18 236 4.8 22.5 0.00 0.00 0.00 56
20260505202616 18 267 3.2 22.5 0.00 0.00 0.00 56
20260505202414 18 262 9.7 22.5 0.00 0.00 0.00 57
20260505202212 18 264 12.9 24.1 0.00 0.00 0.00 57
20260505201808 18 265 16.1 24.1 0.00 0.00 0.00 56
20260505201606 18 270 11.3 24.1 0.00 0.00 0.00 56
20260505200959 18 262 19.3 22.5 0.00 0.00 0.00 58
20260505200557 18 243 9.7 17.7 0.00 0.00 0.00 58
20260505195949 18 289 8.0 17.7 0.00 0.00 0.00 56
20260505195749 18 292 9.7 19.3 0.00 0.00 0.00 56
20260505195548 18 278 11.3 19.3 0.00 0.00 0.00 56
20260505195345 18 255 11.3 19.3 0.00 0.00 0.00 55
20260505195148 18 262 12.9 22.5 0.00 0.00 0.00 56